Other Public Products
Issued by NWS Charleston, SC

Current Version | Previous Version | Text Only | Print | Product List | Glossary Off
Versions: 1 2 3 4 5 6 7 8 9 10 11 12 13 14 15 16 17 18 19 20 21 22 23 24 25 26 27 28 29 30 31 32 33 34 35 36 37 38 39 40 41 42 43 44 45 46 47 48 49 50

893
FPUS82 KCHS 232043
OPUCHS

TEST...KCHS/KSAV Gateway Observations...TEST
National Weather Service Charleston SC
400 PM EDT SAT SEP 23 2017

NOTE: "fair" indicates few or no clouds below 12,000 feet with no
significant weather and/or obstructions to visibility.

SCZ050-WAZ558-NCZ071-TXZ119-213-PAZ071-DCZ001-FLZ074-172-MI076-
NYZ176-178-MAZ016-IL014-TNZ027-NJZ106-GAZ044-MD014-232100-

...Gateway Observations for Charleston International...

CITY           SKY/WX    TMP DP  RH WIND       PRES   REMARKS
Chas Airport   MOSUNNY   86  67  52 SE8       29.99F
Seattle        PTSUNNY   63  51  65 W7        30.11F
Charlotte      MOSUNNY   88  62  41 VRB6      30.04F
Dallas DFW     PTSUNNY   94  65  38 SE14      29.89F HX  96
Dallas Love    MOSUNNY   92  64  39 S15       29.90F HX  93
Philladelphia  MOSUNNY   88  59  37 N9        30.01F
Wash National  MOSUNNY   88  63  43 N5        30.05F
Baltimore      MOSUNNY   88  59  37 VRB5      30.03F
Miami          RAIN      85  75  72 NE13G18   29.80F HX  93
Detroit        MOSUNNY   90  62  39 SE5       30.13F HX  90
Newark         SUNNY     89  45  21 N16       29.99F
Laguardia      MOSUNNY   85  48  27 N16G23    29.99F
J F K          MOSUNNY   88  55  32 N16       30.00F
Boston Logan   MOSUNNY   68  61  78 E8        30.01S
Ft. Lauderdale PTSUNNY   88  77  69 E12       29.79F HX 100
Chicago O`Hare MOSUNNY   92  64  39 E10       30.04F HX  93
Chicago Midway MOSUNNY   93  66  40 E13       30.05F HX  96
Houston Bush   MOSUNNY   91  70  49 SE8       29.89F HX  97
Houston Hobby  MOSUNNY   90  71  53 SE12      29.88F HX  96
Nashville      MOSUNNY   89  67  47 E8        30.02F HX  92
Atlanta        MOSUNNY   86  63  45 NE5       30.03F

$$

GAZ044-118-TXZ119-213-NCZ071-DCZ001-MDZ014-506-PAZ021-071-NJZ106-
NYZ176-178-MAZ106-OHZ011-021-055-MIZ076-KYZ091-ILZ014-INZ047-
MNZ060-ONZ431-232100-

...Gateway Observations for Savannah International...

CITY           SKY/WX    TMP DP  RH WIND       PRES   REMARKS
Savannah Arpt  CLOUDY    87  68  52 E14       29.98F HX  90
Atlanta        MOSUNNY   86  63  45 NE5       30.03F
Charlotte      MOSUNNY   88  62  41 VRB6      30.04F
Dallas DFW     PTSUNNY   94  65  38 SE14      29.89F HX  96
Houston Bush   MOSUNNY   91  70  49 SE8       29.89F HX  97
Wash National  MOSUNNY   88  63  43 N5        30.05F
Wash Dulles    MOSUNNY   85  61  44 VRB3      30.06F
Baltimore      MOSUNNY   88  59  37 VRB5      30.03F
Philadelphia   MOSUNNY   88  59  37 N9        30.01F
Newark         SUNNY     89  45  21 N16       29.99F
Laguardia      MOSUNNY   85  48  27 N16G23    29.99F
J F K          MOSUNNY   88  55  32 N16       30.00F
Boston         MOSUNNY   68  61  78 E8        30.01S
Pittsburg      MOSUNNY   89  51  27 VRB5      30.12F
Akron          MOSUNNY   91  57  31 NE9       30.13F
Cleveland      SUNNY     90  50  25 N9        30.15F
Cincinnati     MOSUNNY   89  64  43 NE10      30.08F HX  90
Columbus       SUNNY     89  58  34 E5G16     30.07F
Detroit        MOSUNNY   90  62  39 SE5       30.13F HX  90
Chicago O`Hare MOSUNNY   92  64  39 E10       30.04F HX  93
Minneapolis    PTSUNNY   88  71  57 S9        29.93F HX  94
Indianapolis   MOSUNNY   90  64  42 SE7       30.07F HX  91
Toronto Canada MOSUNNY   91  64  40 NW7       30.07F HX  93

$$




USA.gov is the U.S. government's official web portal to all federal, state and local government web resources and services.